This demonstration page uses our WeatherBlox Daily Observations layout. Learn more.

Hourly Observations for December 25, 2017

Temp ( °F °C ) Dew Point ( °F °C ) Humidity (%) Winds ( mph kmh ) Pressure ( in mb ) Visibility ( mi km ) Precip ( " mm )
12:15 am 00:15 Clear -2 -18.8 -7 -21.4 80 80 N 5 7 30.59 1036 10 16.09344 0 0
12:35 am 00:35 Clear 0 -18 -5 -20.6 80 80 NW 3 6 30.59 1036 10 16.09344 0 0
12:55 am 00:55 Clear -1 -18.6 -7 -21.4 79 79 W 5 7 30.59 1036 10 16.09344 0 0
1:15 am 01:15 Clear -1 -18.1 -6 -21 78 78 W 7 11 30.59 1036 10 16.09344 0 0
1:35 am 01:35 Clear 2 -16.7 -4 -20 76 76 WNW 8 13 30.59 1036 10 16.09344 0 0
1:55 am 01:55 Clear 2 -16.6 -4 -20 75 75 W 5 7 30.59 1036 10 16.09344 0 0
2:15 am 02:15 Clear 4 -15.8 -2 -18.7 79 79 W 6 9 30.53 1034 10 16.09344 0 0
2:35 am 02:35 Clear 5 -15.2 -1 -18.5 76 76 W 6 9 30.53 1034 10 16.09344 0 0
2:55 am 02:55 Clear 5 -15 -1 -18.2 77 77 W 6 9 30.53 1034 10 16.09344 0 0
3:15 am 03:15 Clear 6 -14.5 0 -17.8 76 76 W 6 9 30.53 1034 10 16.09344 0 0
3:35 am 03:35 Partly Cloudy 6 -14.5 0 -18 75 75 Calm 30.53 1034 10 16.09344 0 0
3:55 am 03:55 Partly Cloudy 5 -14.8 0 -18 77 77 Calm 30.53 1034 10 16.09344 0 0
4:15 am 04:15 Partly Cloudy 6 -14.5 0 -17.8 76 76 W 3 6 30.53 1034 10 16.09344 0 0
4:35 am 04:35 Partly Cloudy 6 -14.5 0 -17.8 76 76 WNW 3 6 30.53 1034 10 16.09344 0 0
4:55 am 04:55 Mostly Cloudy 7 -14 0 -17.6 74 74 W 3 6 30.53 1034 10 16.09344 0 0
5:15 am 05:15 Cloudy 8 -13.6 1 -17.4 73 73 Calm 30.5 1033 10 16.09344 0 0
5:35 am 05:35 Cloudy 8 -13.4 1 -17.1 74 74 Calm 30.48 1032 10 16.09344 0 0
5:55 am 05:55 Cloudy 8 -13.1 2 -16.6 75 75 Calm 30.5 1033 10 16.09344 0 0
6:15 am 06:15 Mostly Cloudy 8 -13.3 2 -16.6 76 76 Calm 30.5 1033 10 16.09344 0 0
6:35 am 06:35 Partly Cloudy 8 -13.6 2 -16.8 77 77 Calm 30.5 1033 10 16.09344 0 0
6:55 am 06:55 Cloudy 8 -13.5 2 -16.5 78 78 Calm 30.5 1033 10 16.09344 0 0
7:15 am 07:15 Cloudy 9 -13 3 -16 78 78 SW 3 6 30.5 1033 10 16.09344 0 0
7:35 am 07:35 Cloudy 9 -12.7 4 -15.7 78 78 Calm 30.5 1033 10 16.09344 0 0
7:55 am 07:55 Cloudy 10 -12.5 4 -15.3 80 80 Calm 30.5 1033 10 16.09344 0 0
8:15 am 08:15 Cloudy 10 -12 4 -15.6 75 75 Calm 30.5 1033 10 16.09344 0 0
8:35 am 08:35 Cloudy 11 -11.7 4 -15.6 73 73 ENE 3 6 30.5 1033 10 16.09344 0 0
8:55 am 08:55 Cloudy 14 -10 3 -16.2 61 61 NE 10 17 30.48 1032 10 16.09344 0 0
9:15 am 09:15 Cloudy 14 -9.8 2 -16.4 59 59 NE 8 13 30.48 1032 10 16.09344 0 0
9:35 am 09:35 Cloudy 15 -9.6 3 -16.1 59 59 NE 8 13 30.48 1032 10 16.09344 0 0
9:55 am 09:55 Cloudy 15 -9.7 3 -15.9 61 61 ENE 9 15 30.5 1033 10 16.09344 0 0
10:15 am 10:15 Cloudy 14 -10 3 -16.1 61 61 ENE 10 17 30.5 1033 10 16.09344 0 0
10:35 am 10:35 Cloudy 14 -10 4 -15.6 64 64 ENE 12 19 30.5 1033 10 16.09344 0 0
10:55 am 10:55 Cloudy 14 -10 4 -15.4 65 65 ENE 12 19 30.5 1033 10 16.09344 0 0
11:15 am 11:15 Cloudy 14 -9.9 4 -15.3 65 65 ENE 14 22 30.5 1033 10 16.09344 0 0
11:35 am 11:35 Cloudy 14 -9.9 5 -14.9 67 67 ENE 13 20 30.5 1033 10 16.09344 0 0
11:55 am 11:55 Cloudy 14 -10.2 6 -14.7 70 70 ENE 14 22 30.5 1033 10 16.09344 0 0
12:15 pm 12:15 Cloudy 13 -10.6 5 -14.9 71 71 ENE 14 22 30.48 1032 10 16.09344 0 0
12:35 pm 12:35 Cloudy 13 -10.6 6 -14.5 73 73 ENE 13 20 30.48 1032 10 16.09344 0 0
12:55 pm 12:55 Cloudy with Light Snow 13 -10.8 6 -14.5 74 74 ENE 14 22 30.48 1032 4 6.437376 0 0
1:15 pm 13:15 Cloudy with Light Snow 12 -11 6 -14.5 76 76 ENE 14 22 30.48 1032 1.75 2.816352 0 0
1:35 pm 13:35 Cloudy with Light Snow 11 -11.5 6 -14.7 77 77 ENE 12 19 30.5 1033 1.25 2.01168 0 0
1:55 pm 13:55 Cloudy with Light Snow 11 -11.5 6 -14.7 77 77 NE 15 24 30.5 1033 0.5 0.804672 0 0
2:15 pm 14:15 Cloudy with Light Snow 11 -11.7 5 -15.2 76 76 ENE 16 26 30.5 1033 2 3.218688 0 0
2:35 pm 14:35 Cloudy with Light Snow 10 -12.1 4 -15.6 75 75 ENE 14 22 30.5 1033 1.75 2.816352 0 0
2:55 pm 14:55 Cloudy with Light Snow 10 -12.3 4 -15.5 77 77 ENE 13 20 30.5 1033 0.75 1.207008 0 0
3:15 pm 15:15 Cloudy with Light Snow 10 -12.5 4 -15.5 79 79 ENE 13 20 30.5 1033 0.75 1.207008 0 0
3:35 pm 15:35 Cloudy with Light Snow 9 -12.6 4 -15.3 80 80 ENE 10 17 30.53 1034 1 1.609344 0 0
3:55 pm 15:55 Cloudy with Snow 9 -12.6 5 -15.1 82 82 ENE 9 15 30.53 1034 0.5 0.804672 0 0
4:15 pm 16:15 Cloudy with Light Snow 9 -12.6 5 -15.2 81 81 NE 9 15 30.53 1034 0.75 1.207008 0 0
4:35 pm 16:35 Cloudy with Light Snow 9 -12.7 5 -15.2 82 82 NE 8 13 30.53 1034 2.5 4.02336 0 0
4:55 pm 16:55 Cloudy with Light Snow 9 -12.8 4 -15.6 80 80 NE 8 13 30.56 1035 4 6.437376 0 0
5:15 pm 17:15 Cloudy with Light Snow 8 -13.2 3 -16.1 79 79 ENE 10 17 30.56 1035 4 6.437376 0 0
5:35 pm 17:35 Cloudy with Light Snow 8 -13.3 3 -16.1 80 80 NE 8 13 30.56 1035 7 11.265408 0 0
5:55 pm 17:55 Cloudy with Light Snow 8 -13.2 3 -16.1 79 79 NE 8 13 30.56 1035 10 16.09344 0 0
6:15 pm 18:15 Cloudy 8 -13.5 2 -16.5 78 78 NE 13 20 30.59 1036 10 16.09344 0 0
6:35 pm 18:35 Cloudy 8 -13.6 2 -16.6 78 78 NNE 10 17 30.62 1037 10 16.09344 0 0
6:55 pm 18:55 Cloudy 7 -13.7 2 -16.8 78 78 NE 10 17 30.62 1037 10 16.09344 0 0
7:15 pm 19:15 Cloudy 7 -13.8 2 -16.8 78 78 NE 7 11 30.62 1037 10 16.09344 0 0
7:35 pm 19:35 Cloudy 7 -13.8 2 -16.7 79 79 NE 8 13 30.62 1037 10 16.09344 0 0
7:55 pm 19:55 Cloudy 7 -14 1 -17 78 78 NE 9 15 30.62 1037 10 16.09344 0 0
8:15 pm 20:15 Cloudy with Light Snow 7 -14.1 1 -17 79 79 NNE 9 15 30.62 1037 10 16.09344 0 0
8:35 pm 20:35 Cloudy 6 -14.2 1 -17.2 78 78 NNE 7 11 30.65 1038 10 16.09344 0 0
8:55 pm 20:55 Cloudy 6 -14.2 1 -17.2 78 78 NNE 8 13 30.65 1038 10 16.09344 0 0
9:15 pm 21:15 Cloudy with Light Snow 6 -14.3 1 -17.4 78 78 NNE 7 11 30.65 1038 10 16.09344 0 0
9:35 pm 21:35 Cloudy with Light Snow 6 -14.3 1 -17.2 79 79 NE 12 19 30.62 1037 10 16.09344 0 0
9:55 pm 21:55 Cloudy with Light Snow 6 -14.5 0 -17.8 76 76 NNE 8 13 30.65 1038 10 16.09344 0 0
10:15 pm 22:15 Cloudy with Light Snow 6 -14.5 0 -17.9 76 76 N 8 13 30.65 1038 10 16.09344 0 0
10:35 pm 22:35 Cloudy with Light Snow 6 -14.5 0 -17.8 76 76 NNE 7 11 30.65 1038 4 6.437376 0 0
10:55 pm 22:55 Cloudy with Light Snow 6 -14.6 0 -17.6 78 78 NNE 10 17 30.65 1038 3 4.828032 0 0
11:15 pm 23:15 Cloudy with Light Snow 6 -14.7 0 -17.6 79 79 N 6 9 30.65 1038 2.5 4.02336 0 0
11:35 pm 23:35 Cloudy with Light Snow 5 -14.8 0 -17.6 79 79 N 9 15 30.65 1038 2.5 4.02336 0 0
11:55 pm 23:55 Cloudy with Light Snow 5 -15 0 -17.8 79 79 N 8 13 30.65 1038 1.75 2.816352 0 0

Powered by AerisWeather